OPS 4682 DEB, 38421

Orbit data source: Space-Track

OPS 4682 DEB, 38421 is space debris in LEO originally from a launch on Sat, 03 Apr 1965 UTC launched from the Air Force Western Test Range (AFWTR). Debris objects in space refer to the collection of defunct objects orbiting the Earth. Examples of debris include non-operational satellites, rocket bodies, and fragments generated from explosions, collisions, or faulty payload assembly.

Loading next visibility...
Identifier
38421, 1965-027EA
Orbit
LEO
Country
Flag of USUS
Related business
Manufacturer
Unknown
Mission
Spacecraft
Bus & Motor
Unknown
Mass
Unknown
Launch date (UTC)
1965-04-03 (61 years ago)
Launch vehicle
Unknown
Launch site
Air Force Western Test Range (AFWTR)
Object type
Payload
Rocket body
Debris
Shape & HBR
Unknown shape, 0.1 m
Radar Cross Section
Medium (>0.1 m² and <1 m²)

Expand to show TLE details & history
Last TLE update: 1 day ago

TLE from 1 day ago
0 OPS 4682 DEB
1 38421U 65027EA  26263.05871030 -.00000093  00000-0 -29025-3 0  9996
2 38421  90.2682  11.3586 0034373  42.6029 317.7756 13.10001622681045
Epoch: 2026-09-20T01:24Z
TLE epoch observation values (Epoch: 2026-09-20T01:24:32.569Z)
Latitude
-0.00003°
Longitude
-8.73544°
Altitude
1,206.736 km
Speed
7.26 km/s
True Right ascension
00h 45m 26s
True Declination
0° 00' 00"
Sunlit
Object was in full shadow at epoch
Visualization orbit readout
Latitude
Unknown
Longitude
Unknown
Altitude
Unknown
Speed
Unknown
Apparent Right ascension
Unknown
Apparent Declination
Unknown
Sunlit
N/A
Visualization observer readout
Local Sidereal Time
01:05:04
Azimuth
Unknown
Elevation
Unknown
Doppler factor
Unknown
Orbital elements
Apogee altitude
1,246.379 km
Perigee altitude
1,194.143 km
Semi-major axis
7,598.398 km
Eccentricity
0.00344
Inclination
90.2682°
RAAN
11.3586°
Arg. of periapsis
42.6029°
True anomaly
317.51005°
Mean anomaly
317.7756°
Eccentric anomaly
317.64291°
Mean motion
3.27688 °/min
Orbital period
109.86 mins
BSTAR
-0.00029025
Loading maneuver chart data...
Computing Atmospheric mass density...
Loading historical data...
Loading historical data...
Loading historical data...
Loading historical data...
Loading historical data...
Loading historical data...
Loading historical data...

Documentation

Showing up to 5 results
|